Location: Newark
(49.5647°N, 8.2922°E)
Time: 10:55:03
(UTC+00:00)

Vanguard 1 - All Passes

Search period start: 17 February 2020 00:00
Search period end: 27 February 2020 00:00
Orbit: 650 x 3833 km, 34.2° (Epoch: 16 February)

Date Brightness Start Highest point End Pass type
(mag) Time Alt. Az. Time Alt. Az. Time Alt. Az.
17 Feb - 06:43:10 10° S 06:54:35 18° SSE 07:03:28 10° ESE daylight
17 Feb - 09:02:01 10° SW 09:16:39 32° SSE 09:25:52 10° ESE daylight
17 Feb - 11:25:57 10° WSW 11:37:45 34° S 11:44:50 10° SE daylight
17 Feb - 13:51:17 10° WSW 13:57:04 18° SSW 14:01:21 10° S daylight
18 Feb - 07:01:25 10° SSW 07:15:24 23° SSE 07:25:36 10° ESE daylight
18 Feb - 09:22:21 10° SW 09:37:30 35° S 09:46:45 10° ESE daylight
18 Feb - 11:47:00 10° WSW 11:58:24 33° SSW 12:05:18 10° SE daylight
18 Feb - 14:13:14 10° WSW 14:17:21 14° SW 14:20:40 10° S daylight
19 Feb - 05:08:54 10° SSE 05:14:01 11° SE 05:18:45 10° ESE visible
19 Feb - 07:20:30 10° SSW 07:36:14 28° SSE 07:47:10 10° ESE daylight
19 Feb - 09:42:57 10° SW 09:58:21 38° S 10:07:33 10° ESE daylight
19 Feb - 12:08:11 10° WSW 12:18:59 30° SSW 12:25:39 10° SE daylight
20 Feb - 05:23:31 10° S 05:34:40 16° SE 05:44:03 10° ESE visible
20 Feb - 07:40:09 10° SW 07:57:06 33° SSE 08:08:25 10° ESE daylight
20 Feb - 10:03:46 10° WSW 10:19:09 39° S 10:28:14 10° ESE daylight
20 Feb - 12:29:30 10° WSW 12:39:28 27° SSW 12:45:49 10° SSE daylight
21 Feb - 05:40:57 10° S 05:55:21 22° SE 06:06:50 10° ESE visible
21 Feb - 08:00:13 10° SW 08:17:59 37° SSE 08:29:28 10° ESE daylight
21 Feb - 10:24:44 10° WSW 10:39:55 39° S 10:48:50 10° ESE daylight
21 Feb - 12:50:59 10° WSW 12:59:50 23° SSW 13:05:46 10° SSE daylight
22 Feb - 05:59:30 10° SSW 06:16:05 27° SSE 06:28:46 10° E daylight
22 Feb - 08:20:37 10° SW 08:38:52 40° S 08:50:21 10° ESE daylight
22 Feb - 10:45:52 10° WSW 11:00:37 38° SSW 11:09:19 10° SE daylight
22 Feb - 13:12:46 10° WSW 13:20:05 19° SW 13:25:20 10° S daylight
23 Feb - 04:05:40 10° SSE 04:14:30 14° SE 04:22:37 10° ESE visible
23 Feb - 06:18:45 10° SSW 06:36:52 32° SSE 06:50:15 10° E daylight
23 Feb - 08:41:16 10° WSW 08:59:45 43° S 09:11:09 10° ESE daylight
23 Feb - 11:07:06 10° WSW 11:21:14 36° SSW 11:29:41 10° SE daylight
23 Feb - 13:35:08 10° WSW 13:40:13 14° SW 13:44:14 10° SSW daylight
24 Feb - 04:21:41 10° S 04:34:58 19° SE 04:46:43 10° ESE visible
24 Feb - 06:38:29 10° SW 06:57:42 37° SSE 07:11:29 10° E daylight
24 Feb - 09:02:07 10° WSW 09:20:36 44° S 09:31:51 10° ESE daylight
24 Feb - 11:28:27 10° W 11:41:43 32° SSW 11:49:53 10° SSE daylight
25 Feb - 04:39:30 10° S 04:55:32 24° SE 05:09:16 10° E visible
25 Feb - 06:58:36 10° SW 07:18:34 41° SSE 07:32:32 10° ESE daylight
25 Feb - 09:23:08 10° WSW 09:41:25 44° S 09:52:28 10° ESE daylight
25 Feb - 11:49:57 10° W 12:02:06 28° SSW 12:09:52 10° SSE daylight
26 Feb - 04:58:14 10° SSW 05:16:09 30° SSE 05:31:08 10° E visible
26 Feb - 07:19:01 10° SW 07:39:29 44° S 07:53:27 10° ESE daylight
26 Feb - 09:44:17 10° WSW 10:02:10 43° SSW 10:12:58 10° SE daylight
26 Feb - 12:11:41 10° W 12:22:21 23° SW 12:29:33 10° S daylight
